GW2742 Weather Reports


time (UTC)temp
F
wind
direction
speed
knots
gust
knots
rain 1hr
in
rain 24hr
in
rain mn
in
humidity
%
barometer
mb
20260508230042 72 117 0.9 4.3 0.00 0.09 0.02 36 1010.3
20260508225528 72 204 0.9 4.3 0.00 0.09 0.02 34 1010.4
20260508225027 71 323 0.9 4.3 0.00 0.09 0.02 37 1010.4
20260508224544 71 26 0.0 5.2 0.00 0.09 0.02 35 1010.6
20260508224023 71 154 1.7 6.1 0.00 0.09 0.02 36 1010.6
20260508223526 70 190 1.7 7.8 0.00 0.09 0.02 37 1010.8
20260508223038 70 180 2.6 10.4 0.00 0.09 0.02 38 1010.8
20260508222523 70 137 3.5 10.4 0.00 0.09 0.02 36 1010.9
20260508222023 70 208 1.7 10.4 0.00 0.09 0.02 37 1011.0
20260508221537 70 330 3.5 6.1 0.00 0.09 0.02 38 1011.0
20260508221025 70 1 1.7 6.1 0.00 0.09 0.02 36 1011.1
20260508220526 70 108 1.7 6.1 0.00 0.09 0.02 38 1011.2
20260508220037 70 37 0.9 3.5 0.00 0.09 0.02 40 1011.2
20260508215525 69 212 0.9 6.1 0.00 0.09 0.02 37 1011.3
20260508215027 69 162 1.7 6.1 0.00 0.09 0.02 37 1011.4
20260508214542 69 103 0.9 7.8 0.00 0.09 0.02 38 1011.5
20260508214023 69 151 2.6 8.7 0.00 0.09 0.02 37 1011.5
20260508213523 69 131 4.3 8.7 0.00 0.09 0.02 39 1011.6
20260508213042 69 125 3.5 7.8 0.00 0.09 0.02 39 1011.6
20260508212526 70 115 2.6 7.8 0.00 0.09 0.02 37 1011.6
20260508212023 69 247 1.7 8.7 0.00 0.09 0.02 40 1011.8
20260508211543 69 219 3.5 8.7 0.00 0.09 0.02 39 1011.8
20260508211023 69 179 4.3 7.8 0.00 0.09 0.02 38 1011.9
20260508210524 69 109 0.9 5.2 0.00 0.09 0.02 40 1011.9
20260508210047 68 158 2.6 5.2 0.00 0.09 0.02 44 1012.0
20260508205523 68 0 1.7 7.8 0.00 0.09 0.02 38 1011.9
20260508205025 68 85 2.6 7.8 0.00 0.09 0.02 39 1012.1
20260508204545 68 160 4.3 7.8 0.00 0.09 0.02 40 1012.2
20260508204023 67 152 4.3 7.0 0.00 0.09 0.02 43 1012.2
20260508203524 67 66 1.7 8.7 0.00 0.09 0.02 41 1012.2
20260508203049 67 94 3.5 8.7 0.00 0.09 0.02 43 1012.3
20260508202524 67 97 3.5 7.8 0.00 0.09 0.02 43 1012.4
20260508202026 66 34 3.5 7.0 0.00 0.09 0.02 42 1012.4
20260508201537 66 71 2.6 8.7 0.00 0.09 0.02 42 1012.4
20260508201026 66 17 5.2 8.7 0.00 0.09 0.02 41 1012.4
20260508200525 66 0 2.6 6.1 0.00 0.09 0.02 41 1012.5
20260508200041 66 92 2.6 6.1 0.00 0.09 0.02 41 1012.5
20260508195526 66 102 1.7 9.6 0.00 0.09 0.02 40 1012.7
20260508195025 66 120 3.5 9.6 0.00 0.09 0.02 43 1012.8
20260508194537 66 112 3.5 9.6 0.00 0.09 0.02 47 1012.9
20260508194024 66 108 4.3 9.6 0.00 0.09 0.02 44 1013.0
20260508193522 66 25 1.7 7.0 0.00 0.09 0.02 45 1013.0
20260508193042 66 126 3.5 7.0 0.00 0.09 0.02 48 1013.1
20260508192525 65 0 1.7 7.8 0.00 0.09 0.02 44 1013.1
20260508192025 65 222 3.5 9.6 0.00 0.09 0.02 45 1013.3
20260508191539 65 188 0.9 9.6 0.00 0.09 0.02 47 1013.4
20260508191025 65 80 3.5 9.6 0.00 0.09 0.02 46 1013.5
20260508190524 65 98 2.6 7.8 0.00 0.09 0.02 47 1013.6
20260508190047 64 99 1.7 7.8 0.00 0.09 0.02 49 1013.7
20260508185529 64 116 1.7 7.0 0.00 0.09 0.02 48 1013.9
20260508185023 64 233 2.6 8.7 0.00 0.09 0.02 48 1013.9
20260508184548 64 113 4.3 8.7 0.00 0.09 0.02 51 1014.0
20260508184025 64 159 5.2 8.7 0.00 0.09 0.02 52 1014.1
20260508183524 63 68 4.3 8.7 0.00 0.09 0.02 52 1014.1
20260508183041 63 90 4.3 7.8 0.00 0.09 0.02 51 1014.3
20260508182525 62 68 2.6 11.3 0.00 0.09 0.02 51 1014.2
20260508182024 62 79 5.2 11.3 0.00 0.09 0.02 53 1014.4
20260508181538 63 94 4.3 7.0 0.00 0.09 0.02 54 1014.6
20260508181026 62 65 2.6 10.4 0.00 0.09 0.02 56 1014.6
20260508180525 62 160 3.5 10.4 0.00 0.09 0.02 58 1014.7
20260508180037 62 99 3.5 7.8 0.00 0.09 0.02 59 1014.8
20260508175525 62 60 3.5 7.8 0.00 0.09 0.02 59 1014.9
20260508175025 61 127 2.6 7.8 0.00 0.09 0.02 58 1014.9
20260508174556 61 106 4.3 7.8 0.00 0.09 0.02 60 1014.9
20260508174031 61 79 3.5 12.2 0.00 0.09 0.02 60 1015.0
20260508173525 60 139 4.3 12.2 0.00 0.09 0.02 60 1015.0
20260508173040 60 124 3.5 8.7 0.00 0.09 0.02 64 1015.0
20260508172525 60 179 2.6 8.7 0.00 0.09 0.02 60 1015.2
20260508172025 60 216 4.3 10.4 0.00 0.09 0.02 63 1015.4
20260508171536 60 133 3.5 10.4 0.00 0.09 0.02 64 1015.3
20260508171025 59 107 2.6 10.4 0.00 0.09 0.02 64 1015.3
20260508170524 59 151 4.3 10.4 0.00 0.09 0.02 65 1015.5
20260508170038 59 107 3.5 8.7 0.00 0.09 0.02 66 1015.5
20260508165524 59 104 3.5 8.7 0.00 0.09 0.02 65 1015.6
20260508165024 59 126 3.5 8.7 0.00 0.09 0.02 68 1015.4
20260508164544 58 94 4.3 9.6 0.00 0.09 0.02 68 1015.7
20260508164026 58 179 4.3 9.6 0.00 0.09 0.02 68 1015.7
20260508163527 57 167 4.3 9.6 0.00 0.09 0.02 71 1015.6
20260508163104 57 131 4.3 9.6 0.00 0.09 0.02 70 1015.7
20260508162526 57 107 4.3 8.7 0.00 0.09 0.02 72 1015.7
20260508162024 57 158 4.3 8.7 0.00 0.09 0.02 71 1015.8
20260508161540 56 141 3.5 8.7 0.00 0.09 0.02 74 1015.8
20260508161025 56 131 4.3 8.7 0.00 0.09 0.02 74 1016.0
20260508160528 56 81 4.3 8.7 0.00 0.09 0.02 75 1016.0
20260508160037 56 78 4.3 7.8 0.00 0.09 0.02 76 1016.0
20260508155525 56 146 3.5 8.7 0.00 0.09 0.02 79 1016.1
20260508155025 55 160 3.5 8.7 0.00 0.09 0.02 80 1016.2
20260508154537 55 158 4.3 8.7 0.00 0.09 0.02 79 1016.2
20260508154025 54 167 4.3 10.4 0.00 0.09 0.02 79 1016.3
20260508153525 54 150 5.2 10.4 0.00 0.09 0.02 80 1016.3
20260508153037 53 125 3.5 8.7 0.00 0.09 0.02 82 1016.4
20260508152524 52 127 4.3 8.7 0.00 0.09 0.02 83 1016.4
20260508152025 51 131 2.6 8.7 0.00 0.09 0.02 86 1016.4
20260508151541 51 117 3.5 8.7 0.00 0.09 0.02 86 1016.4
20260508151033 51 148 4.3 8.7 0.00 0.09 0.02 86 1016.4
20260508150525 50 148 3.5 7.8 0.00 0.09 0.02 88 1016.5
20260508150040 50 113 3.5 7.0 0.00 0.09 0.02 89 1016.5
20260508145524 49 244 0.9 3.5 0.00 0.09 0.02 90 1016.6
20260508145025 49 21 0.9 4.3 0.00 0.09 0.02 90 1016.7
20260508144540 49 0 0.0 4.3 0.00 0.09 0.02 91 1016.7
20260508144025 48 103 1.7 4.3 0.00 0.09 0.02 91 1016.6
20260508143526 48 105 1.7 4.3 0.00 0.09 0.02 91 1016.7
20260508143037 48 78 1.7 4.3 0.00 0.09 0.02 91 1016.8
20260508142524 48 66 1.7 4.3 0.00 0.09 0.02 92 1016.7
20260508142025 47 106 1.7 4.3 0.00 0.09 0.02 92 1016.7
20260508141537 47 45 1.7 4.3 0.00 0.09 0.02 93 1016.8
20260508141022 47 0 0.9 4.3 0.00 0.09 0.02 93 1016.9
20260508140525 46 14 0.9 4.3 0.00 0.09 0.02 94 1016.7
20260508140036 46 20 0.0 2.6 0.00 0.09 0.02 94 1016.7
20260508135525 46 20 0.9 2.6 0.00 0.11 0.02 94 1016.7
20260508135024 45 25 0.0 2.6 0.00 0.11 0.02 94 1016.6
20260508134544 45 0 0.0 1.7 0.00 0.11 0.02 94 1016.7
20260508134023 44 0 0.0 1.7 0.00 0.11 0.02 94 1016.6
20260508133527 44 0 0.0 1.7 0.00 0.11 0.02 94 1016.6
20260508133045 44 0 0.0 1.7 0.00 0.11 0.02 94 1016.6
20260508132523 43 0 0.0 1.7 0.00 0.11 0.02 94 1016.7
20260508132023 43 0 0.0 2.6 0.00 0.11 0.02 94 1016.7
20260508131545 43 0 0.0 2.6 0.01 0.11 0.02 94 1016.6
20260508131026 43 55 0.9 2.6 0.01 0.11 0.02 94 1016.4
20260508130527 43 0 0.0 0.9 0.01 0.11 0.02 94 1016.4
20260508130047 42 0 0.0 0.9 0.01 0.11 0.02 94 1016.3
20260508125523 41 0 0.0 1.7 0.01 0.11 0.02 94 1016.4
20260508125023 41 0 0.0 2.6 0.01 0.11 0.02 94 1016.4
20260508124536 41 27 0.9 2.6 0.01 0.11 0.02 94 1016.2
20260508124024 40 184 0.0 1.7 0.01 0.11 0.02 94 1016.1
20260508123523 39 0 0.0 0.0 0.01 0.11 0.02 94 1016.1
20260508123041 39 0 0.0 0.0 0.01 0.11 0.02 94 1015.9
20260508122526 39 0 0.0 0.0 0.01 0.11 0.02 93 1016.0
20260508122029 39 0 0.0 0.0 0.01 0.11 0.02 93 1015.8
20260508121539 39 0 0.0 0.0 0.00 0.10 0.01 94 1015.8
20260508121023 39 0 0.0 0.0 0.00 0.10 0.01 94 1015.7
20260508120525 39 0 0.0 0.0 0.00 0.10 0.01 94 1015.8
20260508120036 39 0 0.0 0.0 0.00 0.10 0.01 94 1015.8
20260508115528 39 0 0.0 0.0 0.00 0.11 0.01 93 1015.8
20260508115025 39 0 0.0 0.0 0.00 0.11 0.01 93 1015.8
20260508114537 39 0 0.0 0.0 0.00 0.11 0.01 93 1015.7
20260508114025 39 0 0.0 0.0 0.00 0.11 0.01 93 1015.7
20260508113523 39 0 0.0 0.0 0.00 0.11 0.01 93 1015.7
20260508113047 39 0 0.0 0.0 0.00 0.11 0.01 93 1015.6
20260508112524 39 0 0.0 0.0 0.00 0.11 0.01 94 1015.7
20260508112026 39 0 0.0 0.0 0.00 0.11 0.01 93 1015.8
20260508111541 39 0 0.0 0.0 0.00 0.11 0.01 93 1015.7
20260508111023 39 0 0.0 0.0 0.00 0.11 0.01 94 1015.7
20260508110525 39 0 0.0 0.0 0.00 0.11 0.01 93 1015.6
20260508110050 38 0 0.0 0.0 0.00 0.11 0.01 93 1015.5
20260508105523 37 0 0.0 0.0 0.00 0.14 0.01 93 1015.6
20260508105023 37 0 0.0 0.0 0.00 0.14 0.01 93 1015.5
20260508104537 38 0 0.0 0.0 0.00 0.14 0.01 92 1015.5
20260508104025 38 0 0.0 0.0 0.00 0.14 0.01 92 1015.5
20260508103526 38 0 0.0 0.0 0.00 0.14 0.01 93 1015.6
20260508103040 39 0 0.0 0.0 0.00 0.14 0.01 93 1015.4
20260508102523 38 0 0.0 0.0 0.00 0.14 0.01 93 1015.6
20260508102022 38 0 0.0 1.7 0.00 0.14 0.01 93 1015.5
20260508101547 38 0 0.0 2.6 0.00 0.14 0.01 93 1015.5
20260508101023 38 184 0.9 3.5 0.00 0.14 0.01 92 1015.5
20260508100526 39 184 1.7 3.5 0.00 0.14 0.01 92 1015.4
20260508100043 40 0 0.0 0.0 0.00 0.14 0.01 93 1015.4
20260508095525 40 0 0.0 0.0 0.00 0.14 0.01 93 1015.3
20260508095022 40 0 0.0 0.0 0.00 0.14 0.01 92 1015.4
20260508094550 40 0 0.0 0.0 0.00 0.14 0.01 92 1015.2
20260508094023 40 0 0.0 0.0 0.00 0.14 0.01 93 1015.2
20260508093526 40 0 0.0 0.0 0.00 0.14 0.01 93 1015.1
20260508093051 40 0 0.0 0.0 0.00 0.14 0.01 93 1015.2
20260508092523 40 0 0.0 0.0 0.00 0.14 0.01 93 1015.3
20260508092023 40 0 0.0 0.0 0.00 0.14 0.01 93 1015.2
20260508091540 40 0 0.0 0.0 0.00 0.14 0.01 92 1015.3
20260508091023 40 0 0.0 0.0 0.00 0.14 0.01 92 1015.3
20260508090523 41 0 0.0 0.0 0.00 0.14 0.01 92 1015.2
20260508090056 41 0 0.0 0.0 0.00 0.14 0.01 92 1015.2
20260508085522 41 0 0.0 0.0 0.00 0.14 0.01 92 1015.2
20260508085027 42 0 0.0 0.0 0.00 0.14 0.01 92 1015.2
20260508084536 42 0 0.0 0.0 0.00 0.14 0.01 92 1015.4
20260508084027 42 0 0.0 0.0 0.00 0.14 0.01 92 1015.2
20260508083527 42 0 0.0 0.0 0.00 0.14 0.01 92 1015.2
20260508083041 43 0 0.0 0.0 0.00 0.14 0.01 92 1015.3
20260508082527 43 0 0.0 0.0 0.00 0.14 0.01 92 1015.3
20260508082026 43 0 0.0 0.0 0.00 0.14 0.01 92 1015.2
20260508081541 43 0 0.0 0.0 0.00 0.14 0.01 92 1015.2
20260508081026 43 0 0.0 0.0 0.00 0.14 0.01 92 1015.3
20260508080527 44 0 0.0 0.0 0.00 0.14 0.01 92 1015.3
20260508080039 44 0 0.0 0.9 0.00 0.14 0.01 92 1015.2
20260508075527 44 0 0.0 0.9 0.00 0.14 0.01 92 1015.3
20260508075029 44 0 0.0 0.9 0.00 0.14 0.01 93 1015.1
20260508074541 44 0 0.0 1.7 0.01 0.14 0.01 92 1015.2
20260508074027 44 0 0.0 1.7 0.01 0.14 0.01 92 1015.4
20260508073526 44 213 0.0 1.7 0.01 0.14 0.01 92 1015.2
20260508073037 44 0 0.0 0.0 0.01 0.14 0.01 92 1015.2
20260508072527 44 0 0.0 0.0 0.01 0.14 0.01 92 1015.3
20260508072027 44 0 0.0 0.0 0.01 0.14 0.01 91 1015.2
20260508071539 45 0 0.0 0.0 0.01 0.14 0.01 91 1015.4
20260508071027 45 0 0.0 0.0 0.01 0.14 0.01 91 1015.3
20260508070527 45 0 0.0 0.0 0.01 0.14 0.01 91 1015.3
20260508070041 45 0 0.0 0.0 0.01 0.14 0.01 91 1015.3
20260508065528 45 0 0.0 0.0 0.01 0.14 0.01 91 1015.4
20260508065026 46 0 0.0 0.0 0.00 0.13 0.00 91 1015.3
20260508064536 46 0 0.0 2.6 0.00 0.13 0.00 91 1015.3
20260508064027 46 0 0.0 2.6 0.00 0.13 0.00 91 1015.2
20260508063531 46 213 0.9 2.6 0.00 0.13 0.00 91 1015.4
20260508063043 46 186 0.0 1.7 0.00 0.13 0.00 91 1015.3
20260508062527 46 0 0.0 0.0 0.00 0.13 0.00 91 1015.2
20260508062026 46 0 0.0 0.9 0.00 0.13 0.00 91 1015.2
20260508061541 46 0 0.0 0.9 0.00 0.13 0.00 91 1015.2
20260508061028 46 0 0.0 1.7 0.00 0.13 0.00 91 1015.4
20260508060526 47 0 0.0 2.6 0.00 0.13 0.00 91 1015.4
20260508060043 47 0 0.0 2.6 0.00 0.13 0.00 91 1015.3
20260508055526 47 179 0.9 2.6 0.00 0.13 0.13 90 1015.3
20260508055031 47 0 0.0 0.9 0.00 0.13 0.13 90 1015.4
20260508054555 47 0 0.0 0.0 0.00 0.13 0.13 90 1015.2
20260508054030 47 0 0.0 2.6 0.00 0.13 0.13 90 1015.2
20260508053526 47 0 0.0 2.6 0.00 0.13 0.13 90 1015.2
20260508053040 47 179 0.9 2.6 0.00 0.13 0.13 90 1015.2
20260508052527 48 0 0.0 2.6 0.00 0.13 0.13 89 1015.2
20260508052027 48 143 0.0 1.7 0.00 0.13 0.13 89 1015.0
20260508051537 48 0 0.0 1.7 0.00 0.13 0.13 89 1015.1
20260508051027 48 0 0.0 1.7 0.00 0.13 0.13 88 1014.9
20260508050527 48 0 0.0 2.6 0.00 0.13 0.13 89 1014.9
20260508050047 48 234 0.9 2.6 0.00 0.13 0.13 89 1014.9
20260508045526 49 261 0.9 2.6 0.00 0.13 0.13 89 1015.0
20260508045026 49 262 0.9 2.6 0.00 0.13 0.13 89 1015.0
20260508044543 49 243 0.0 1.7 0.00 0.13 0.13 89 1015.2
20260508044026 49 0 0.0 0.0 0.00 0.13 0.13 89 1015.0
20260508043526 49 0 0.0 1.7 0.00 0.13 0.13 89 1015.1
20260508043038 50 0 0.0 2.6 0.00 0.13 0.13 89 1015.1
20260508042527 50 243 0.9 3.5 0.00 0.13 0.13 89 1015.2
20260508042027 50 237 0.9 4.3 0.00 0.13 0.13 89 1015.2
20260508041548 50 234 0.9 4.3 0.00 0.13 0.13 89 1015.2
20260508041028 50 235 0.9 6.1 0.00 0.13 0.13 89 1015.2
20260508040528 50 220 1.7 6.1 0.01 0.13 0.13 89 1015.1
20260508040039 50 197 3.5 6.1 0.01 0.13 0.13 88 1014.8
20260508035527 50 212 1.7 2.6 0.01 0.13 0.13 89 1014.9
20260508035028 50 215 0.0 2.6 0.01 0.13 0.13 89 1015.0
20260508034540 50 0 0.0 1.7 0.01 0.13 0.13 89 1015.1
20260508034028 50 0 0.0 1.7 0.01 0.13 0.13 89 1015.2
20260508033527 50 0 0.0 0.0 0.01 0.13 0.13 88 1015.3
20260508033039 50 0 0.0 0.0 0.01 0.13 0.13 87 1015.2
20260508032529 50 0 0.0 0.9 0.01 0.13 0.13 87 1015.1
20260508032027 50 0 0.0 2.6 0.01 0.13 0.13 87 1014.9
20260508031553 51 0 0.0 2.6 0.01 0.13 0.13 87 1014.6
20260508031027 50 184 0.9 2.6 0.01 0.13 0.13 87 1014.9
20260508030527 50 252 0.9 3.5 0.00 0.12 0.12 86 1015.1
20260508030046 50 0 0.0 3.5 0.00 0.12 0.12 86 1015.0
20260508025526 50 247 1.7 3.5 0.00 0.12 0.12 86 1014.9
20260508025026 50 245 0.0 1.7 0.00 0.12 0.12 86 1014.7
20260508024536 51 0 0.0 0.0 0.00 0.12 0.12 86 1014.5
20260508024027 51 0 0.0 0.0 0.00 0.12 0.12 85 1014.5
20260508023527 51 0 0.0 1.7 0.00 0.12 0.12 84 1014.2
20260508023042 51 0 0.0 2.6 0.00 0.12 0.12 84 1014.3
20260508022526 51 330 0.0 4.3 0.00 0.12 0.12 84 1014.2
20260508022026 51 345 1.7 4.3 0.00 0.12 0.12 84 1014.0
20260508021542 51 39 1.7 3.5 0.00 0.12 0.12 84 1013.7
20260508021027 51 39 1.7 4.3 0.00 0.12 0.12 84 1013.5
20260508020526 51 0 0.9 4.3 0.00 0.12 0.12 84 1014.1
20260508020037 51 250 0.9 3.5 0.01 0.12 0.12 84 1014.0
20260508015527 51 233 0.0 1.7 0.01 0.12 0.12 84 1013.9
20260508015027 51 245 0.0 1.7 0.02 0.12 0.12 83 1013.8
20260508014537 51 0 0.0 0.9 0.03 0.12 0.12 83 1013.9
20260508014026 51 0 0.0 0.9 0.03 0.12 0.12 83 1013.8
20260508013526 52 0 0.0 1.7 0.04 0.12 0.12 83 1013.7
20260508013043 52 0 0.0 2.6 0.05 0.12 0.12 82 1013.5
20260508012526 52 335 0.9 2.6 0.05 0.12 0.12 81 1013.3
20260508012027 52 353 0.9 4.3 0.06 0.12 0.12 80 1013.2
20260508011536 52 348 0.9 4.3 0.06 0.12 0.12 80 1013.0
20260508011026 52 335 2.6 6.1 0.06 0.12 0.12 79 1012.9
20260508010526 52 349 1.7 6.1 0.05 0.11 0.11 78 1012.6
20260508010044 52 7 1.7 14.8 0.05 0.11 0.11 78 1012.7
20260508005526 53 359 5.2 23.5 0.04 0.10 0.10 74 1012.8
20260508005026 55 347 7.0 23.5 0.04 0.10 0.10 68 1012.2
20260508004539 50 359 7.8 15.6 0.03 0.09 0.09 78 1011.6
20260508004025 51 49 3.5 12.2 0.03 0.09 0.09 82 1013.4
20260508003531 51 340 6.1 13.0 0.02 0.08 0.08 80 1014.0
20260508003049 53 359 4.3 13.0 0.01 0.07 0.07 77 1014.1
20260508002529 55 321 6.1 13.0 0.01 0.07 0.07 73 1014.0
20260508002026 57 285 1.7 4.3 0.00 0.06 0.06 70 1013.5
20260508001537 57 249 1.7 7.0 0.00 0.06 0.06 68 1012.9
20260508001026 58 276 2.6 7.0 0.00 0.06 0.06 67 1012.8
20260508000526 58 230 2.6 7.0 0.00 0.06 0.06 65 1012.3
20260508000040 58 250 1.7 5.2 0.00 0.06 0.06 66 1012.1
20260507235527 58 237 1.7 7.0 0.00 0.06 0.06 67 1012.1
20260507235028 58 233 3.5 7.0 0.00 0.06 0.06 67 1012.0
20260507234540 58 246 2.6 6.1 0.00 0.06 0.06 67 1011.9
20260507234027 58 215 2.6 6.1 0.00 0.06 0.06 67 1012.1
20260507233526 58 210 1.7 6.1 0.00 0.06 0.06 67 1012.2
20260507233040 58 194 4.3 7.0 0.00 0.06 0.06 66 1012.1
20260507232526 58 221 3.5 7.0 0.00 0.06 0.06 66 1012.2
20260507232025 59 227 4.3 7.0 0.00 0.06 0.06 64 1012.1
20260507231545 59 214 4.3 8.7 0.00 0.06 0.06 65 1012.0
20260507231026 59 213 4.3 8.7 0.00 0.06 0.06 64 1012.2
20260507230527 60 220 3.5 7.8 0.00 0.06 0.06 62 1012.2